Location: Unspecified
(0.0000°N, 0.0000°E)
Time: 17:52:49
(UTC+00:00)

STARLINK 1009 - Pass Details

Date: 18 January 2020
Orbit: 348 x 352 km, 53.0° (Epoch: 17 January)

Event Time Altitude Azimuth Distance (km) Brightness Sun altitude
Exits shadow 04:15:21 - 176° (S) 1,869 6.7 -26.7°
Reaches altitude 10° 04:17:36 10° 146° (SE) 1,301 6.2 -26.2°
Maximum altitude 04:18:39 11° 125° (SE) 1,219 6.3 -25.9°
Drops below altitude 10° 04:19:42 10° 103° (ESE) 1,298 6.5 -25.7°
Sets 04:22:45 0° 67° (ENE) 2,135 7.3 -25.0°
